{"data":{"norad_id":45461,"intl_designator":"2020-021B","name":"YAOGAN-30 07B","alt_names":[],"object_type":"PAYLOAD","status":"ACTIVE","operator":null,"country":"PRC","launch_date":"2020-03-24","launch_site_code":"XICLF","launch_vehicle":null,"mission":null,"orbit_class":"UNKNOWN","rcs_meters":null,"size_class":null,"mass_kg":null,"dimensions":null,"purposes":[],"wikipedia_slug":null,"has_3d_model":false,"image_url":null,"decayed_at":null,"tle_current":{"epoch":"2026-09-20T04:57:16.522272Z","epoch_age_seconds":93018,"freshness":"FRESH","line1":"1 45461U 20021B   26263.20644123  .00001682  00000+0  12447-3 0  9993","line2":"2 45461  34.9957 351.1696 0002810 321.5681  38.4827 15.03057147354790","mean_motion":15.03057147,"eccentricity":0.000281,"inclination_deg":34.9957,"raan_deg":351.1696,"arg_perigee_deg":321.5681,"mean_anomaly_deg":38.4827,"bstar":0.00012447,"rev_number":35479,"period_min":95.804740549895,"perigee_km":555.52699738808,"apogee_km":559.42481184047,"semimajor_km":6935.6129046143,"source":"CELESTRAK","updated_at":"2026-09-20T09:00:14.664294Z"}}}